Groton, CT

8:02 PM EDT on May 25, 2017 (GMT -0400)
Groton-New London

Weather History for KGON - July, 2013

Change the Weather History Date:

Friday, July 26, 2013

  Actual Average Record
Temperature  
Mean Temperature 67 °F -  
Max Temperature 73 °F 79 °F 95 °F (1979)
Min Temperature 61 °F 62 °F 52 °F (1976)
Cooling Degree Days 2    
Growing Degree Days 17 (Base 50)    
Moisture  
Dew Point 63 °F    
Average Humidity 87    
Maximum Humidity 96    
Minimum Humidity 73    
Precipitation  
Precipitation 0.09 in - - ()
Sea Level Pressure  
Sea Level Pressure 29.98 in    
Wind  
Wind Speed 11 mph (NNW)    
Max Wind Speed 17 mph    
Max Gust Speed 26 mph    
Visibility 8 miles    
Events Rain    
Averages and records for this station are not official NWS values.
T = Trace of Precipitation, MM = Missing Value Source: NWS Daily Summary

Daily Weather History Graph

Daily Weather History Graph

Search for Another Location

Airport or City:

Trip Planner

Search our weather history database for the weather conditions in past years. The results will help you decide how hot, cold, wet, or windy it might be!

Date:

Astronomy

Jul. 26, 2013 Rise Set
Actual Time 5:37 AM EDT 8:11 PM EDT
Civil Twilight 5:06 AM EDT 8:42 PM EDT
Nautical Twilight 4:26 AM EDT 9:22 PM EDT
Astronomical Twilight 3:41 AM EDT 10:06 PM EDT
Moon 10:19 PM EDT 10:14 AM EDT
Length of Visible Light 15h 36m
Length of Day
14h 33m
Waning Gibbous, 80% of the Moon is Illuminated
Jul 26
Waning Gibbous
Jul 29
Last Quarter
Aug 6
New
Aug 14
First Quarter
Aug 20
Full

Hourly Weather History & Observations

Time (EDT) Temp. Dew Point Humidity Pressure Visibility Wind Dir Wind Speed Gust Speed Precip Events Conditions
12:56 AM 61.0 °F 59.0 °F 93% 30.00 in 7.0 mi North 11.5 mph - 0.01 in Rain Light Rain
1:40 AM 62.6 °F 60.8 °F 94% 29.99 in 10.0 mi NNE 10.4 mph - 0.00 in   Overcast
1:56 AM 62.1 °F 60.1 °F 93% 29.98 in 9.0 mi NNE 11.5 mph - 0.00 in   Overcast
2:38 AM 62.6 °F 60.8 °F 94% 29.97 in 8.0 mi North 11.5 mph - 0.00 in Rain Light Rain
2:56 AM 62.1 °F 60.1 °F 93% 29.97 in 9.0 mi North 12.7 mph - 0.00 in Rain Light Rain
3:56 AM 62.1 °F 60.1 °F 93% 29.95 in 6.0 mi North 12.7 mph - 0.00 in Rain Light Rain
4:56 AM 62.1 °F 61.0 °F 96% 29.95 in 6.0 mi North 12.7 mph - 0.05 in Rain Light Rain
5:56 AM 62.1 °F 61.0 °F 96% 29.94 in 8.0 mi North 13.8 mph - 0.01 in Rain Light Rain
6:16 AM 62.6 °F 60.8 °F 94% 29.94 in 9.0 mi North 12.7 mph - 0.00 in   Mostly Cloudy
6:56 AM 63.0 °F 61.0 °F 93% 29.95 in 8.0 mi North 13.8 mph - 0.00 in   Mostly Cloudy
7:56 AM 64.0 °F 61.0 °F 90% 29.95 in 9.0 mi North 15.0 mph - N/A   Overcast
8:56 AM 64.9 °F 62.1 °F 90% 29.96 in 8.0 mi NNW 15.0 mph 23.0 mph N/A   Overcast
9:56 AM 66.9 °F 62.1 °F 84% 29.95 in 9.0 mi North 16.1 mph 26.5 mph N/A   Overcast
10:03 AM 66.2 °F 62.6 °F 88% 29.95 in 9.0 mi North 17.3 mph 25.3 mph N/A   Scattered Clouds
10:56 AM 68.0 °F 62.1 °F 81% 29.95 in 9.0 mi North 13.8 mph 21.9 mph N/A   Mostly Cloudy
11:56 AM 70.0 °F 63.0 °F 78% 29.96 in 9.0 mi NNW 13.8 mph 24.2 mph N/A   Overcast
12:49 PM 71.6 °F 64.4 °F 78% 29.96 in 9.0 mi NNW 13.8 mph - N/A   Overcast
12:56 PM 73.0 °F 64.0 °F 73% 29.96 in 9.0 mi NNW 15.0 mph 23.0 mph N/A   Mostly Cloudy
1:56 PM 73.0 °F 64.0 °F 73% 29.96 in 9.0 mi NW 12.7 mph 17.3 mph N/A   Overcast
2:39 PM 71.6 °F 64.4 °F 78% 29.98 in 9.0 mi NW 9.2 mph - N/A   Overcast
2:56 PM 73.0 °F 64.9 °F 76% 29.98 in 9.0 mi NW 6.9 mph - N/A   Overcast
3:56 PM 72.0 °F 64.0 °F 76% 29.99 in 9.0 mi NW 8.1 mph - N/A   Overcast
4:56 PM 70.0 °F 64.9 °F 84% 29.99 in 5.0 mi NW 4.6 mph - 0.00 in Rain Light Rain
5:56 PM 70.0 °F 64.9 °F 84% 29.98 in 9.0 mi NNW 3.5 mph - 0.02 in   Mostly Cloudy
6:56 PM 71.1 °F 64.0 °F 78% 29.99 in 9.0 mi Calm Calm - N/A   Clear
7:56 PM 69.1 °F 66.9 °F 93% 30.01 in 7.0 mi SW 8.1 mph - N/A   Scattered Clouds
8:56 PM 68.0 °F 66.0 °F 93% 30.02 in 9.0 mi WSW 5.8 mph - N/A   Partly Cloudy
9:56 PM 66.9 °F 64.9 °F 93% 30.03 in 7.0 mi West 3.5 mph - N/A   Clear
10:56 PM 66.0 °F 64.9 °F 96% 30.04 in 6.0 mi Calm Calm - N/A   Clear
11:56 PM 66.9 °F 64.9 °F 93% 30.04 in 7.0 mi WSW 4.6 mph - N/A   Clear